Melbourne Airport, Australia

5:53 PM AEDT on February 20, 2018 (GMT +1100)
Melbourne International

Weather History for YMML - August, 2013

Change the Weather History Date:

Friday, August 23, 2013

  Actual Average Record
Temperature  
Mean Temperature 54 °F -  
Max Temperature 57 °F 59 °F 66 °F (2011)
Min Temperature 50 °F 43 °F 35 °F (2002)
Degree Days  
Heating Degree Days 12    
Growing Degree Days 4 (Base 50)    
Moisture  
Dew Point 47 °F    
Average Humidity 77    
Maximum Humidity 94    
Minimum Humidity 60    
Precipitation  
Precipitation 0.00 in 0.06 in - ()
Sea Level Pressure  
Sea Level Pressure 29.84 in    
Wind  
Wind Speed 15 mph ()    
Max Wind Speed 31 mph    
Max Gust Speed 39 mph    
Visibility 7.4 miles    
Events Rain    
Averages and records for this station are not official NWS values.
T = Trace of Precipitation, MM = Missing Value Source: Averaged Metar Reports

Daily Weather History Graph

Daily Weather History Graph

Search for Another Location

Airport or City:

Trip Planner

Search our weather history database for the weather conditions in past years. The results will help you decide how hot, cold, wet, or windy it might be!

Date:

Astronomy

Aug. 23, 2013 Rise Set
Actual Time 6:55 AM AEST 5:52 PM AEST
Civil Twilight 6:28 AM AEST 6:18 PM AEST
Nautical Twilight 5:58 AM AEST 6:49 PM AEST
Astronomical Twilight 5:27 AM AEST 7:19 PM AEST
Moon 8:25 PM AEST (8/23) 7:44 AM AEST (8/23)
Length of Visible Light 11h 50m
Length of Day
10h 56m
Waning Gibbous, 95% of the Moon is Illuminated
Aug 23
Waning Gibbous
Aug 28
Last Quarter
Sep 5
New
Sep 13
First Quarter
Sep 19
Full

Hourly Weather History & Observations

Time (AEST) Temp. Dew Point Humidity Pressure Visibility Wind Dir Wind Speed Gust Speed Precip Events Conditions
12:00 AM 51 °F 47 °F 80% 29.74 in 16 mi NNW 9.2 mph - -   Mostly Cloudy
12:00 AM 50.0 °F 46.4 °F 87% 29.71 in 6.2 mi NNW 9.2 mph - N/A   Mostly Cloudy
12:30 AM 51.8 °F 46.4 °F 82% 29.71 in 6.2 mi NNW 10.4 mph - N/A Rain Light Rain
1:00 AM 50 °F 48 °F 89% 29.73 in - WNW 11.5 mph - -  
1:00 AM 50.0 °F 48.2 °F 94% 29.71 in 6.2 mi WNW 11.5 mph - N/A   Mostly Cloudy
1:30 AM 50.0 °F 48.2 °F 94% 29.71 in 6.2 mi WNW 10.4 mph - N/A   Mostly Cloudy
2:00 AM 51 °F 44 °F 70% 29.73 in - West 16.1 mph - -  
2:00 AM 51.8 °F 44.6 °F 76% 29.71 in 6.2 mi West 16.1 mph - N/A   Mostly Cloudy
2:30 AM 50.0 °F 42.8 °F 76% 29.71 in 6.2 mi West 16.1 mph - N/A   Mostly Cloudy
3:00 AM 51 °F 42 °F 64% 29.73 in 19 mi West 16.1 mph - -   Mostly Cloudy
3:00 AM 50.0 °F 42.8 °F 76% 29.71 in 6.2 mi West 16.1 mph - N/A   Mostly Cloudy
3:30 AM 51.8 °F 42.8 °F 71% 29.71 in 6.2 mi West 15.0 mph - N/A   Mostly Cloudy
4:00 AM 51.8 °F 42.8 °F 71% 29.71 in 6.2 mi West 16.1 mph - N/A   Mostly Cloudy
4:30 AM 51.8 °F 42.8 °F 71% 29.71 in 6.2 mi West 12.7 mph - N/A   Mostly Cloudy
5:00 AM 51 °F 44 °F 68% 29.73 in - WNW 15.0 mph - -  
5:00 AM 51.8 °F 44.6 °F 76% 29.71 in 6.2 mi WNW 15.0 mph - N/A   Mostly Cloudy
5:30 AM 51.8 °F 44.6 °F 76% 29.71 in 6.2 mi West 16.1 mph - N/A   Mostly Cloudy
6:00 AM 52 °F 44 °F 66% 29.74 in 19 mi West 16.1 mph - -   Partly Cloudy
6:00 AM 51.8 °F 44.6 °F 76% 29.71 in 6.2 mi West 16.1 mph - N/A   Mostly Cloudy
6:30 AM 51.8 °F 44.6 °F 76% 29.74 in 6.2 mi WNW 17.3 mph - N/A   Mostly Cloudy
7:00 AM 52 °F 44 °F 66% 29.75 in - WNW 18.4 mph - -  
7:00 AM 51.8 °F 44.6 °F 76% 29.74 in 6.2 mi WNW 18.4 mph - N/A   Mostly Cloudy
7:30 AM 51.8 °F 44.6 °F 76% 29.74 in 6.2 mi West 17.3 mph - N/A   Mostly Cloudy
8:00 AM 53.6 °F 44.6 °F 72% 29.77 in 6.2 mi WNW 16.1 mph - N/A   Mostly Cloudy
8:30 AM 53.6 °F 44.6 °F 72% 29.77 in 6.2 mi West 20.7 mph - N/A   Mostly Cloudy
9:00 AM 53.6 °F 46.4 °F 77% 29.77 in 6.2 mi West 19.6 mph - N/A   Mostly Cloudy
9:30 AM 53.6 °F 46.4 °F 77% 29.80 in 6.2 mi West 19.6 mph - N/A   Light Drizzle
10:00 AM 55 °F 45 °F 60% 29.81 in - West 20.7 mph - -  
10:00 AM 55.4 °F 44.6 °F 67% 29.80 in 6.2 mi West 20.7 mph - N/A   Mostly Cloudy
10:15 AM 55.4 °F 44.6 °F 67% 29.80 in 6.2 mi West 21.9 mph 33.4 mph N/A   Mostly Cloudy
10:30 AM 55.4 °F 46.4 °F 72% 29.80 in 6.2 mi West 25.3 mph - N/A   Overcast
11:00 AM 55 °F 47 °F 65% 29.83 in - WSW 20.7 mph - -  
11:00 AM 55.4 °F 46.4 °F 72% 29.83 in 6.2 mi WSW 20.7 mph - N/A   Overcast
11:30 AM 55.4 °F 46.4 °F 72% 29.83 in 6.2 mi West 21.9 mph - N/A   Mostly Cloudy
12:00 PM 55.4 °F 46.4 °F 72% 29.83 in 6.2 mi West 24.2 mph - N/A   Mostly Cloudy
12:30 PM 55.4 °F 46.4 °F 72% 29.83 in 4.3 mi West 24.2 mph - N/A Rain Light Rain Showers
1:00 PM 57.2 °F 46.4 °F 67% 29.80 in 6.2 mi West 23.0 mph - N/A   Mostly Cloudy
1:30 PM 57.2 °F 46.4 °F 67% 29.80 in 6.2 mi WSW 31.1 mph - N/A   Mostly Cloudy
2:00 PM 57.2 °F 46.4 °F 67% 29.83 in 6.2 mi WSW 24.2 mph - N/A   Mostly Cloudy
2:09 PM 57.2 °F 48.2 °F 72% 29.83 in 3.7 mi WSW 26.5 mph - N/A Rain Light Rain Showers
2:19 PM 55.4 °F 48.2 °F 77% 29.83 in 6.2 mi WSW 27.6 mph 39.1 mph N/A   Mostly Cloudy
2:30 PM 55.4 °F 50.0 °F 82% 29.83 in 6.2 mi West 24.2 mph - N/A   Mostly Cloudy
3:00 PM 56 °F 47 °F 64% 29.86 in 16 mi West 21.9 mph - - Rain Light Rain Showers
3:00 PM 57.2 °F 48.2 °F 72% 29.83 in 6.2 mi West 21.9 mph - N/A   Mostly Cloudy
3:30 PM 57.2 °F 46.4 °F 67% 29.86 in 6.2 mi WSW 23.0 mph - N/A   Mostly Cloudy
4:00 PM 57.2 °F 48.2 °F 72% 29.86 in 6.2 mi West 18.4 mph - N/A Rain Light Rain Showers
4:30 PM 55.4 °F 48.2 °F 77% 29.86 in 6.2 mi WSW 21.9 mph - N/A   Mostly Cloudy
5:00 PM 55 °F 49 °F 75% 29.90 in - WSW 17.3 mph - -  
5:00 PM 55.4 °F 50.0 °F 82% 29.89 in 6.2 mi WSW 17.3 mph - N/A   Mostly Cloudy
5:30 PM 55.4 °F 48.2 °F 77% 29.89 in 6.2 mi WSW 16.1 mph - N/A   Mostly Cloudy
6:00 PM 54 °F 49 °F 76% 29.94 in 19 mi WSW 12.7 mph - -   Mostly Cloudy
6:00 PM 53.6 °F 48.2 °F 82% 29.92 in 6.2 mi WSW 12.7 mph - N/A   Mostly Cloudy
6:30 PM 53.6 °F 48.2 °F 82% 29.95 in 6.2 mi SW 11.5 mph - N/A   Mostly Cloudy
7:00 PM 53 °F 49 °F 81% 29.98 in - WSW 13.8 mph - -  
7:00 PM 53.6 °F 48.2 °F 82% 29.95 in 6.2 mi WSW 13.8 mph - N/A   Mostly Cloudy
7:30 PM 51.8 °F 50.0 °F 94% 29.98 in 5.6 mi WSW 16.1 mph - N/A   Light Drizzle
8:00 PM 52 °F 50 °F 90% 30.01 in - WSW 11.5 mph - -  
8:00 PM 51.8 °F 50.0 °F 94% 29.98 in 6.2 mi WSW 11.5 mph - N/A   Mostly Cloudy
8:30 PM 51.8 °F 48.2 °F 88% 30.01 in 6.2 mi WSW 13.8 mph - N/A   Mostly Cloudy
9:00 PM 52 °F 48 °F 80% 30.04 in 19 mi WSW 13.8 mph - -   Partly Cloudy
9:00 PM 51.8 °F 48.2 °F 88% 30.01 in 6.2 mi WSW 13.8 mph - N/A   Scattered Clouds
9:30 PM 51.8 °F 48.2 °F 88% 30.04 in 6.2 mi WSW 12.7 mph - N/A   Mostly Cloudy
10:00 PM 51 °F 47 °F 83% 30.06 in - WSW 11.5 mph - -  
10:00 PM 51.8 °F 48.2 °F 88% 30.04 in 6.2 mi WSW 11.5 mph - N/A   Mostly Cloudy
10:30 PM 51.8 °F 48.2 °F 88% 30.04 in 6.2 mi WSW 12.7 mph - N/A   Mostly Cloudy
11:00 PM 51 °F 47 °F 83% 30.07 in - WSW 11.5 mph - -  
11:00 PM 51.8 °F 48.2 °F 88% 30.04 in 6.2 mi WSW 11.5 mph - N/A   Scattered Clouds
11:30 PM 50.0 °F 48.2 °F 94% 30.06 in 6.2 mi WSW 10.4 mph - N/A   Mostly Cloudy